This is the latest recevied weather packets stored in our database for station/object KD5BIG-13. If no packets are shown the sender has not sent any weather packets the latest 10 day(s).
| Time | Temp. | Humidity | Pressure | Rain* | Wind** | Luminosity | Snow |
|---|---|---|---|---|---|---|---|
| 1777926578 | 25° C | 42% | 1018.4 hPa | 0 mm | - | 807 W/m² | - |
| 1777926275 | 25° C | 44% | 1018.6 hPa | 0 mm | - | 819 W/m² | - |
| 1777925972 | 25° C | 43% | 1018.6 hPa | 0 mm | - | 846 W/m² | - |
| 1777925669 | 25° C | 44% | 1018.6 hPa | 0 mm | - | 890 W/m² | - |
| 1777925367 | 25° C | 47% | 1018.8 hPa | 0 mm | - | 709 W/m² | - |
| 1777925064 | 25.56° C | 44% | 1019.1 hPa | 0 mm | - | 884 W/m² | - |
| 1777924760 | 25.56° C | 45% | 1018.9 hPa | 0 mm | - | 899 W/m² | - |
| 1777924456 | 25° C | 42% | 1018.8 hPa | 0 mm | - | 917 W/m² | - |
| 1777924153 | 25° C | 42% | 1018.9 hPa | 0 mm | - | 939 W/m² | - |
| 1777923849 | 25° C | 44% | 1019.2 hPa | 0 mm | - | 893 W/m² | - |
| 1777923545 | 25° C | 45% | 1019.4 hPa | 0 mm | - | 898 W/m² | - |
| 1777923242 | 25.56° C | 43% | 1019.5 hPa | 0 mm | - | 814 W/m² | - |
| 1777922941 | 25° C | 41% | 1019.4 hPa | 0 mm | - | 870 W/m² | - |
| 1777922638 | 25° C | 49% | 1019.7 hPa | 0 mm | - | 997 W/m² | - |
| 1777922336 | 25° C | 44% | 1019.5 hPa | 0 mm | - | 997 W/m² | - |
| 1777922034 | 25° C | 43% | 1019.7 hPa | 0 mm | - | 990 W/m² | - |
| 1777921729 | 25° C | 43% | 1019.7 hPa | 0 mm | - | 988 W/m² | - |
| 1777921425 | 25.56° C | 44% | 1019.5 hPa | 0 mm | - | 1025 W/m² | - |
| 1777921122 | 25° C | 45% | 1019.9 hPa | 0 mm | - | 995 W/m² | - |
| 1777920819 | 25° C | 49% | 1020 hPa | 0 mm | - | 1008 W/m² | - |
| 1777920515 | 25° C | 49% | 1019.9 hPa | 0 mm | - | 308 W/m² | - |
| 1777920211 | 24.44° C | 50% | 1019.7 hPa | 0 mm | - | 1009 W/m² | - |
| 1777919907 | 24.44° C | 49% | 1019.8 hPa | 0 mm | - | 1009 W/m² | - |
| 1777919604 | 25° C | 44% | 1019.8 hPa | 0 mm | - | 1021 W/m² | - |
| 1777919302 | 25° C | 44% | 1019.9 hPa | 0 mm | - | 1024 W/m² | - |
* Rain latest hour (hover to see other rain measurements)
** Current wind speed in m/s (hover to see current wind gust speed)